| time (UTC) | temp F | wind direction | speed MPH | gust MPH | rain 1hr in | rain 24hr in | rain mn in | humidity % | barometer mb |
| 20260510053332 | 50 | 88 | 0.0 | 0.0 | 0.04 | 3.98 | 0.04 | 94 | 1011.5 |
| 20260510052821 | 50 | 87 | 0.0 | 0.0 | 0.04 | 3.98 | 0.04 | 95 | 1011.4 |
| 20260510052321 | 50 | 249 | 0.0 | 0.0 | 0.04 | 3.98 | 0.04 | 94 | 1011.5 |
| 20260510051830 | 49 | 249 | 0.0 | 0.0 | 0.04 | 3.98 | 0.04 | 95 | 1011.3 |
| 20260510051316 | 49 | 249 | 0.0 | 0.0 | 0.04 | 3.98 | 0.04 | 94 | 1011.4 |
| 20260510050816 | 49 | 291 | 0.0 | 0.0 | 0.04 | 3.98 | 0.04 | 95 | 1011.3 |
| 20260510050324 | 48 | 291 | 0.0 | 0.0 | 0.04 | 3.98 | 0.04 | 95 | 1011.3 |
| 20260510045821 | 48 | 249 | 0.0 | 0.0 | 0.04 | 3.98 | 0.04 | 95 | 1011.2 |
| 20260510045324 | 48 | 82 | 0.0 | 0.0 | 0.04 | 3.98 | 0.04 | 95 | 1011.2 |
| 20260510044825 | 48 | 242 | 0.0 | 0.0 | 0.04 | 3.98 | 0.04 | 95 | 1011.2 |
| 20260510044334 | 48 | 242 | 0.0 | 2.0 | 0.04 | 3.98 | 0.04 | 95 | 1011.2 |
| 20260510043817 | 48 | 257 | 1.0 | 2.0 | 0.04 | 3.98 | 0.04 | 95 | 1011.2 |
| 20260510043319 | 48 | 263 | 0.0 | 2.0 | 0.00 | 3.94 | 0.03 | 95 | 1011.2 |
| 20260510042828 | 48 | 284 | 0.0 | 2.0 | 0.00 | 3.94 | 0.03 | 95 | 1011.3 |
| 20260510042325 | 48 | 284 | 0.0 | 2.0 | 0.00 | 3.94 | 0.03 | 95 | 1011.3 |
| 20260510041835 | 48 | 283 | 1.0 | 2.0 | 0.00 | 3.94 | 0.03 | 95 | 1011.3 |
| 20260510041315 | 48 | 255 | 1.0 | 2.0 | 0.00 | 3.94 | 0.03 | 95 | 1011.1 |
| 20260510040817 | 48 | 255 | 1.0 | 1.0 | 0.00 | 3.94 | 0.03 | 95 | 1011.2 |
| 20260510040326 | 48 | 255 | 0.0 | 0.0 | 0.00 | 3.94 | 0.03 | 95 | 1011.2 |
| 20260510035824 | 48 | 255 | 0.0 | 2.0 | 0.00 | 3.94 | 0.03 | 95 | 1011.2 |
| 20260510035327 | 48 | 255 | 1.0 | 3.0 | 0.00 | 3.94 | 0.03 | 95 | 1011.3 |
| 20260510034816 | 49 | 282 | 2.0 | 3.0 | 0.00 | 3.94 | 0.03 | 95 | 1011.2 |
| 20260510034317 | 49 | 249 | 1.0 | 2.0 | 0.00 | 3.94 | 0.03 | 95 | 1011.3 |
| 20260510033828 | 49 | 232 | 0.0 | 0.0 | 0.00 | 3.94 | 0.03 | 95 | 1011.2 |
| 20260510033316 | 49 | 232 | 0.0 | 1.0 | 0.00 | 3.94 | 0.03 | 95 | 1011.3 |
| 20260510032817 | 49 | 81 | 0.0 | 3.0 | 0.00 | 3.94 | 0.03 | 95 | 1011.3 |
| 20260510032320 | 49 | 81 | 1.0 | 4.0 | 0.00 | 3.94 | 0.03 | 95 | 1011.4 |
| 20260510031829 | 50 | 118 | 3.0 | 4.0 | 0.00 | 3.94 | 0.03 | 95 | 1011.4 |
| 20260510030815 | 49 | 223 | 0.0 | 2.0 | 0.00 | 3.94 | 0.03 | 95 | 1011.6 |
| 20260510030324 | 49 | 67 | 1.0 | 2.0 | 0.00 | 3.94 | 0.03 | 95 | 1011.6 |
| 20260510025825 | 49 | 98 | 2.0 | 3.0 | 0.00 | 3.94 | 0.03 | 94 | 1011.6 |
| 20260510025334 | 49 | 107 | 2.0 | 3.0 | 0.00 | 3.94 | 0.03 | 94 | 1011.7 |
| 20260510024814 | 49 | 60 | 2.0 | 3.0 | 0.00 | 3.94 | 0.03 | 94 | 1011.8 |
| 20260510024317 | 49 | 271 | 1.0 | 2.0 | 0.00 | 3.94 | 0.03 | 94 | 1011.9 |
| 20260510023825 | 49 | 255 | 0.0 | 3.0 | 0.00 | 3.94 | 0.03 | 94 | 1011.9 |
| 20260510023327 | 49 | 280 | 2.0 | 3.0 | 0.00 | 3.94 | 0.03 | 94 | 1011.9 |
| 20260510022836 | 49 | 252 | 1.0 | 2.0 | 0.00 | 3.94 | 0.03 | 94 | 1011.8 |
| 20260510022318 | 50 | 248 | 1.0 | 2.0 | 0.00 | 3.94 | 0.03 | 94 | 1011.8 |
| 20260510021820 | 50 | 343 | 0.0 | 2.0 | 0.00 | 3.94 | 0.03 | 94 | 1011.7 |
| 20260510021334 | 50 | 342 | 0.0 | 2.0 | 0.00 | 3.94 | 0.03 | 94 | 1011.7 |
| 20260510020815 | 50 | 58 | 0.0 | 0.0 | 0.00 | 3.94 | 0.03 | 94 | 1011.6 |
| 20260510020336 | 50 | 321 | 0.0 | 0.0 | 0.00 | 3.94 | 0.03 | 94 | 1011.7 |
| 20260510015817 | 50 | 291 | 0.0 | 0.0 | 0.00 | 3.94 | 0.03 | 94 | 1011.7 |
| 20260510015319 | 50 | 218 | 0.0 | 0.0 | 0.00 | 3.94 | 0.03 | 94 | 1011.6 |
| 20260510014828 | 50 | 218 | 0.0 | 0.0 | 0.00 | 3.94 | 0.03 | 94 | 1011.6 |
| 20260510013819 | 50 | 218 | 0.0 | 0.0 | 0.00 | 3.94 | 0.03 | 94 | 1011.9 |
| 20260510013328 | 50 | 218 | 0.0 | 0.0 | 0.00 | 3.94 | 0.03 | 94 | 1011.9 |
| 20260510012830 | 50 | 218 | 0.0 | 1.0 | 0.00 | 3.94 | 0.03 | 94 | 1012.0 |
| 20260510012339 | 50 | 218 | 0.0 | 1.0 | 0.00 | 3.94 | 0.03 | 94 | 1011.9 |
| 20260510011821 | 50 | 101 | 1.0 | 1.0 | 0.00 | 3.94 | 0.03 | 94 | 1012.1 |
| 20260510011323 | 51 | 97 | 0.0 | 1.0 | 0.00 | 3.94 | 0.03 | 94 | 1012.2 |
| 20260510010839 | 51 | 98 | 1.0 | 1.0 | 0.00 | 3.94 | 0.03 | 94 | 1012.2 |
| 20260510010321 | 51 | 229 | 0.0 | 1.0 | 0.00 | 3.94 | 0.03 | 94 | 1012.4 |
| 20260510005823 | 51 | 229 | 0.0 | 1.0 | 0.00 | 3.94 | 0.03 | 94 | 1012.3 |
| 20260510005332 | 50 | 230 | 0.0 | 1.0 | 0.00 | 3.94 | 0.03 | 94 | 1012.4 |
| 20260510004814 | 51 | 229 | 1.0 | 2.0 | 0.00 | 3.94 | 0.03 | 94 | 1012.3 |
| 20260510004316 | 51 | 229 | 0.0 | 1.0 | 0.00 | 3.94 | 0.03 | 94 | 1012.5 |
| 20260510003825 | 51 | 226 | 0.0 | 0.0 | 0.00 | 3.94 | 0.03 | 94 | 1012.6 |
| 20260510003327 | 51 | 235 | 0.0 | 0.0 | 0.00 | 3.94 | 0.03 | 94 | 1012.8 |
| 20260510002836 | 51 | 251 | 0.0 | 0.0 | 0.00 | 3.94 | 0.03 | 94 | 1012.9 |
| 20260510002319 | 51 | 251 | 0.0 | 0.0 | 0.00 | 3.94 | 0.03 | 94 | 1012.9 |
| 20260510001824 | 51 | 251 | 0.0 | 0.0 | 0.00 | 3.94 | 0.03 | 94 | 1013.0 |
| 20260510001329 | 51 | 252 | 0.0 | 0.0 | 0.00 | 3.94 | 0.03 | 94 | 1013.0 |
| 20260510000831 | 51 | 252 | 0.0 | 0.0 | 0.00 | 3.94 | 0.03 | 94 | 1013.1 |
| 20260510000313 | 51 | 252 | 0.0 | 0.0 | 0.00 | 3.94 | 0.03 | 94 | 1013.1 |
| 20260509235822 | 51 | 252 | 0.0 | 0.0 | 0.00 | 3.94 | 0.03 | 94 | 1013.2 |
| 20260509235324 | 51 | 251 | 0.0 | 0.0 | 0.04 | 3.94 | 0.03 | 94 | 1013.3 |
| 20260509234832 | 52 | 251 | 0.0 | 0.0 | 0.04 | 3.94 | 0.03 | 94 | 1013.4 |
| 20260509234314 | 52 | 190 | 0.0 | 1.0 | 0.04 | 3.94 | 0.03 | 94 | 1013.6 |
| 20260509233815 | 52 | 158 | 0.0 | 2.0 | 0.04 | 3.94 | 0.03 | 94 | 1013.5 |
| 20260509233324 | 52 | 139 | 1.0 | 2.0 | 0.04 | 3.94 | 0.03 | 94 | 1013.6 |
| 20260509232826 | 52 | 226 | 1.0 | 3.0 | 0.04 | 3.94 | 0.03 | 94 | 1013.8 |
| 20260509232315 | 52 | 212 | 1.0 | 1.0 | 0.08 | 3.94 | 0.03 | 94 | 1013.9 |
| 20260509231825 | 52 | 235 | 0.0 | 0.0 | 0.08 | 3.94 | 0.03 | 94 | 1014.0 |
| 20260509231326 | 52 | 235 | 0.0 | 0.0 | 0.12 | 3.94 | 0.03 | 95 | 1014.0 |
| 20260509230835 | 52 | 235 | 0.0 | 0.0 | 0.12 | 3.94 | 0.03 | 94 | 1014.1 |
| 20260509230322 | 52 | 255 | 0.0 | 0.0 | 0.16 | 3.94 | 0.03 | 94 | 1014.2 |
| 20260509225824 | 52 | 255 | 0.0 | 0.0 | 0.16 | 3.94 | 0.03 | 94 | 1014.2 |
| 20260509224822 | 52 | 255 | 0.0 | 0.0 | 0.16 | 3.90 | 0.02 | 94 | 1014.2 |
| 20260509224324 | 52 | 255 | 0.0 | 0.0 | 0.16 | 3.90 | 0.02 | 94 | 1014.3 |
| 20260509223832 | 52 | 255 | 0.0 | 1.0 | 0.16 | 3.90 | 0.02 | 94 | 1014.4 |
| 20260509223315 | 52 | 255 | 0.0 | 1.0 | 0.16 | 3.90 | 0.02 | 94 | 1014.4 |
| 20260509222815 | 52 | 255 | 0.0 | 1.0 | 0.12 | 3.86 | 0.02 | 94 | 1014.3 |
| 20260509222324 | 52 | 255 | 0.0 | 0.0 | 0.12 | 3.86 | 0.02 | 94 | 1014.4 |
| 20260509221825 | 52 | 255 | 0.0 | 1.0 | 0.12 | 3.86 | 0.02 | 94 | 1014.3 |
| 20260509221334 | 52 | 255 | 0.0 | 1.0 | 0.08 | 3.82 | 0.01 | 94 | 1014.2 |
| 20260509220832 | 52 | 210 | 0.0 | 0.0 | 0.08 | 3.82 | 0.01 | 94 | 1014.2 |
| 20260509220315 | 52 | 210 | 0.0 | 0.0 | 0.08 | 3.78 | 0.00 | 94 | 1014.2 |
| 20260509215817 | 53 | 276 | 0.0 | 0.0 | 0.08 | 3.78 | 0.76 | 94 | 1014.1 |
| 20260509215320 | 53 | 276 | 0.0 | 0.0 | 0.08 | 3.78 | 0.76 | 94 | 1014.1 |
| 20260509214827 | 53 | 280 | 0.0 | 0.0 | 0.04 | 3.74 | 0.75 | 94 | 1014.1 |
| 20260509214330 | 53 | 297 | 0.0 | 0.0 | 0.04 | 3.74 | 0.75 | 94 | 1014.0 |
| 20260509213832 | 53 | 298 | 0.0 | 0.0 | 0.04 | 3.74 | 0.75 | 94 | 1014.0 |
| 20260509213321 | 53 | 298 | 0.0 | 0.0 | 0.04 | 3.74 | 0.75 | 94 | 1014.0 |
| 20260509212824 | 53 | 297 | 0.0 | 0.0 | 0.08 | 3.74 | 0.75 | 94 | 1013.9 |
| 20260509212334 | 53 | 297 | 0.0 | 0.0 | 0.08 | 3.74 | 0.75 | 94 | 1013.9 |
| 20260509211816 | 53 | 300 | 0.0 | 0.0 | 0.08 | 3.74 | 0.75 | 94 | 1013.9 |
| 20260509211324 | 53 | 300 | 0.0 | 0.0 | 0.08 | 3.74 | 0.75 | 94 | 1013.9 |
| 20260509210833 | 53 | 300 | 0.0 | 0.0 | 0.12 | 3.74 | 0.75 | 94 | 1013.8 |
| 20260509210316 | 53 | 299 | 0.0 | 0.0 | 0.08 | 3.70 | 0.74 | 94 | 1013.7 |
| 20260509205817 | 53 | 300 | 0.0 | 0.0 | 0.08 | 3.70 | 0.74 | 94 | 1013.8 |
| 20260509205325 | 53 | 249 | 0.0 | 0.0 | 0.12 | 3.70 | 0.74 | 94 | 1013.8 |
| 20260509204827 | 53 | 249 | 0.0 | 0.0 | 0.12 | 3.70 | 0.74 | 94 | 1013.7 |
| 20260509204329 | 53 | 249 | 0.0 | 1.0 | 0.16 | 3.70 | 0.74 | 94 | 1013.6 |
| 20260509203818 | 53 | 249 | 0.0 | 1.0 | 0.16 | 3.70 | 0.74 | 94 | 1013.5 |
| 20260509203321 | 53 | 249 | 0.0 | 2.0 | 0.16 | 3.70 | 0.74 | 94 | 1013.4 |
| 20260509202817 | 53 | 235 | 1.0 | 2.0 | 0.16 | 3.66 | 0.73 | 94 | 1013.3 |
| 20260509202327 | 53 | 269 | 1.0 | 2.0 | 0.16 | 3.66 | 0.73 | 94 | 1013.2 |
| 20260509201829 | 53 | 274 | 1.0 | 2.0 | 0.16 | 3.66 | 0.73 | 94 | 1013.0 |
| 20260509201318 | 53 | 255 | 1.0 | 2.0 | 0.16 | 3.66 | 0.73 | 94 | 1013.1 |
| 20260509200819 | 53 | 231 | 1.0 | 2.0 | 0.12 | 3.62 | 0.72 | 94 | 1013.1 |
| 20260509200321 | 53 | 231 | 0.0 | 1.0 | 0.16 | 3.62 | 0.72 | 94 | 1013.0 |
| 20260509195824 | 53 | 231 | 0.0 | 1.0 | 0.16 | 3.62 | 0.72 | 94 | 1013.0 |
| 20260509195327 | 53 | 217 | 0.0 | 1.0 | 0.16 | 3.58 | 0.72 | 94 | 1012.9 |
| 20260509194836 | 53 | 226 | 0.0 | 1.0 | 0.16 | 3.58 | 0.72 | 94 | 1012.9 |
| 20260509194317 | 53 | 214 | 0.0 | 0.0 | 0.16 | 3.54 | 0.71 | 94 | 1012.6 |
| 20260509193820 | 53 | 214 | 0.0 | 0.0 | 0.20 | 3.54 | 0.71 | 94 | 1012.5 |
| 20260509193329 | 53 | 214 | 0.0 | 0.0 | 0.24 | 3.54 | 0.71 | 94 | 1012.4 |
| 20260509192341 | 53 | 101 | 0.0 | 2.0 | 0.28 | 3.50 | 0.70 | 94 | 1012.2 |
| 20260509191823 | 53 | 58 | 0.0 | 3.0 | 0.35 | 3.50 | 0.70 | 94 | 1012.0 |
| 20260509191325 | 53 | 91 | 1.0 | 6.0 | 0.51 | 3.50 | 0.70 | 94 | 1011.9 |
| 20260509190330 | 53 | 82 | 3.0 | 6.0 | 0.83 | 3.46 | 0.69 | 94 | 1011.7 |
| 20260509185831 | 53 | 22 | 4.0 | 6.0 | 0.98 | 3.46 | 0.69 | 94 | 1011.8 |
| 20260509185340 | 53 | 40 | 3.0 | 5.0 | 0.98 | 3.43 | 0.69 | 94 | 1011.8 |
| 20260509184822 | 53 | 56 | 3.0 | 6.0 | 1.06 | 3.43 | 0.69 | 94 | 1011.9 |
| 20260509184323 | 53 | 56 | 3.0 | 6.0 | 1.10 | 3.39 | 0.68 | 94 | 1011.9 |
| 20260509183831 | 54 | 61 | 3.0 | 5.0 | 1.10 | 3.35 | 0.67 | 94 | 1011.9 |
| 20260509183333 | 54 | 39 | 2.0 | 6.0 | 1.10 | 3.31 | 0.66 | 94 | 1012.0 |
| 20260509182816 | 54 | 33 | 1.0 | 6.0 | 1.10 | 3.27 | 0.65 | 94 | 1012.2 |
| 20260509182325 | 54 | 97 | 0.0 | 3.0 | 1.14 | 3.23 | 0.65 | 94 | 1012.4 |
| 20260509181827 | 54 | 84 | 1.0 | 3.0 | 1.14 | 3.15 | 0.63 | 94 | 1012.5 |
| 20260509181336 | 54 | 44 | 1.0 | 2.0 | 1.06 | 2.95 | 0.59 | 94 | 1012.7 |
| 20260509180327 | 54 | 32 | 0.0 | 1.0 | 1.10 | 2.60 | 0.52 | 94 | 1012.8 |
| 20260509175835 | 54 | 342 | 0.0 | 0.0 | 1.38 | 2.48 | 0.50 | 94 | 1012.7 |
| 20260509175319 | 54 | 301 | 0.0 | 0.0 | 1.81 | 2.44 | 0.49 | 94 | 1012.9 |
| 20260509174820 | 54 | 301 | 0.0 | 0.0 | 1.89 | 2.36 | 0.47 | 94 | 1012.8 |
| 20260509174320 | 54 | 301 | 0.0 | 1.0 | 1.97 | 2.28 | 0.46 | 94 | 1012.9 |
| 20260509173821 | 54 | 301 | 0.0 | 1.0 | 2.05 | 2.24 | 0.45 | 94 | 1013.0 |
| 20260509173324 | 54 | 301 | 0.0 | 1.0 | 2.05 | 2.20 | 0.44 | 94 | 1013.0 |
| 20260509172832 | 55 | 301 | 0.0 | 3.0 | 2.05 | 2.17 | 0.43 | 94 | 1013.0 |
| 20260509172315 | 55 | 301 | 1.0 | 3.0 | 2.01 | 2.09 | 0.42 | 94 | 1013.1 |
| 20260509171841 | 55 | 330 | 1.0 | 3.0 | 1.89 | 1.97 | 0.39 | 94 | 1013.1 |
| 20260509171322 | 55 | 23 | 0.0 | 3.0 | 1.85 | 1.89 | 0.38 | 94 | 1013.2 |
| 20260509170824 | 56 | 79 | 0.0 | 4.0 | 1.73 | 1.77 | 0.35 | 94 | 1013.2 |
| 20260509170332 | 56 | 49 | 2.0 | 4.0 | 1.38 | 1.42 | 0.28 | 94 | 1013.4 |
| 20260509165815 | 56 | 156 | 0.0 | 2.0 | 0.98 | 1.02 | 0.20 | 94 | 1013.4 |
| 20260509165316 | 56 | 242 | 0.0 | 3.0 | 0.59 | 0.63 | 0.13 | 94 | 1013.4 |
| 20260509164825 | 56 | 239 | 0.0 | 3.0 | 0.47 | 0.47 | 0.09 | 94 | 1013.3 |
| 20260509164327 | 56 | 260 | 1.0 | 3.0 | 0.31 | 0.31 | 0.06 | 94 | 1013.2 |
| 20260509163836 | 57 | 226 | 1.0 | 3.0 | 0.20 | 0.20 | 0.04 | 94 | 1013.1 |
| 20260509163319 | 57 | 262 | 1.0 | 4.0 | 0.12 | 0.12 | 0.02 | 94 | 1013.0 |
| 20260509162819 | 57 | 250 | 2.0 | 3.0 | 0.08 | 0.08 | 0.02 | 94 | 1012.9 |
| 20260509162415 | 57 | 262 | 2.0 | 3.0 | 0.08 | 0.08 | 0.02 | 94 | 1012.7 |
| 20260509161832 | 57 | 288 | 0.0 | 1.0 | 0.04 | 0.04 | 0.01 | 94 | 1012.7 |
| 20260509161314 | 57 | 351 | 0.0 | 1.0 | 0.04 | 0.04 | 0.01 | 94 | 1012.4 |
| 20260509160822 | 57 | 351 | 0.0 | 1.0 | 0.04 | 0.04 | 0.01 | 94 | 1012.3 |
| 20260509160324 | 58 | 336 | 0.0 | 1.0 | 0.04 | 0.04 | 0.01 | 93 | 1012.2 |
| 20260509155826 | 58 | 68 | 0.0 | 2.0 | 0.04 | 0.04 | 0.01 | 88 | 1012.1 |
| 20260509155316 | 58 | 72 | 1.0 | 3.0 | 0.04 | 0.04 | 0.01 | 86 | 1012.0 |
| 20260509154834 | 58 | 98 | 2.0 | 4.0 | 0.00 | 0.00 | 0.00 | 85 | 1012.2 |
| 20260509154323 | 59 | 78 | 3.0 | 4.0 | 0.00 | 0.00 | 0.00 | 84 | 1012.2 |
| 20260509153824 | 59 | 60 | 3.0 | 3.0 | 0.00 | 0.00 | 0.00 | 83 | 1012.2 |
| 20260509153326 | 59 | 85 | 2.0 | 4.0 | 0.00 | 0.00 | 0.00 | 82 | 1012.2 |
| 20260509152816 | 59 | 89 | 2.0 | 3.0 | 0.00 | 0.00 | 0.00 | 82 | 1012.2 |
| 20260509152317 | 59 | 131 | 1.0 | 3.0 | 0.00 | 0.00 | 0.00 | 82 | 1012.3 |
| 20260509151820 | 59 | 121 | 1.0 | 4.0 | 0.00 | 0.00 | 0.00 | 82 | 1012.3 |
| 20260509151329 | 59 | 79 | 2.0 | 6.0 | 0.00 | 0.00 | 0.00 | 82 | 1012.5 |
| 20260509150831 | 59 | 79 | 3.0 | 8.0 | 0.00 | 0.00 | 0.00 | 82 | 1012.8 |
| 20260509150340 | 59 | 114 | 6.0 | 9.0 | 0.00 | 0.00 | 0.00 | 82 | 1013.0 |
| 20260509145822 | 60 | 116 | 5.0 | 6.0 | 0.00 | 0.00 | 0.00 | 81 | 1013.1 |
| 20260509145324 | 60 | 113 | 3.0 | 6.0 | 0.00 | 0.00 | 0.00 | 81 | 1013.2 |
| 20260509144833 | 60 | 82 | 2.0 | 3.0 | 0.00 | 0.00 | 0.00 | 82 | 1013.0 |
| 20260509144315 | 60 | 97 | 0.0 | 3.0 | 0.00 | 0.00 | 0.00 | 81 | 1013.1 |
| 20260509143815 | 60 | 91 | 1.0 | 4.0 | 0.00 | 0.00 | 0.00 | 81 | 1013.2 |
| 20260509143324 | 60 | 63 | 1.0 | 4.0 | 0.00 | 0.00 | 0.00 | 81 | 1013.2 |
| 20260509142826 | 60 | 121 | 2.0 | 5.0 | 0.00 | 0.00 | 0.00 | 80 | 1013.4 |
| 20260509142336 | 60 | 81 | 3.0 | 5.0 | 0.00 | 0.00 | 0.00 | 81 | 1013.6 |
| 20260509141815 | 60 | 92 | 1.0 | 4.0 | 0.00 | 0.00 | 0.00 | 81 | 1013.7 |
| 20260509141319 | 60 | 103 | 3.0 | 5.0 | 0.00 | 0.00 | 0.00 | 81 | 1013.7 |
| 20260509140827 | 60 | 98 | 1.0 | 4.0 | 0.00 | 0.00 | 0.00 | 81 | 1013.7 |
| 20260509140329 | 60 | 108 | 2.0 | 4.0 | 0.00 | 0.00 | 0.00 | 81 | 1013.6 |
| 20260509135838 | 60 | 103 | 1.0 | 4.0 | 0.00 | 0.00 | 0.00 | 82 | 1013.5 |
| 20260509135321 | 59 | 94 | 2.0 | 8.0 | 0.00 | 0.00 | 0.00 | 83 | 1013.6 |
| 20260509134824 | 59 | 134 | 5.0 | 8.0 | 0.00 | 0.00 | 0.00 | 84 | 1013.7 |
| 20260509134333 | 59 | 145 | 3.0 | 5.0 | 0.00 | 0.00 | 0.00 | 84 | 1013.7 |
| 20260509133903 | 0 | 0.0 | 0.0 | 0.00 | 0.00 | 0.00 | 1013.7 | ||
| 20260509133331 | 0 | 0.0 | 0.0 | 0.00 | 0.00 | 0.00 | 1013.4 | ||
| 20260509132841 | 0 | 0.0 | 0.0 | 0.00 | 0.00 | 0.00 | 1013.3 | ||
| 20260509132322 | 0 | 0.0 | 0.0 | 0.00 | 0.00 | 0.00 | 1013.4 | ||
| 20260509131407 | 0 | 0.0 | 0.0 | 0.00 | 0.00 | 0.00 | 1013.5 | ||
| 20260509130834 | 0 | 0.0 | 0.0 | 0.00 | 0.00 | 0.00 | 1013.5 | ||
| 20260509130315 | 0 | 0.0 | 0.0 | 0.00 | 0.00 | 0.00 | 1013.7 | ||
| 20260509125824 | 0 | 0.0 | 0.0 | 0.00 | 0.00 | 0.00 | 1013.7 | ||
| 20260509125354 | 0 | 0.0 | 0.0 | 0.00 | 0.00 | 0.00 | 1013.9 | ||
| 20260509124821 | 0 | 0.0 | 0.0 | 0.00 | 0.00 | 0.00 | 1013.9 | ||
| 20260509124330 | 0 | 0.0 | 0.0 | 0.00 | 0.00 | 0.00 | 1013.8 | ||
| 20260509123832 | 0 | 0.0 | 0.0 | 0.00 | 0.00 | 0.00 | 1013.9 | ||
| 20260509123314 | 0 | 0.0 | 0.0 | 0.00 | 0.00 | 0.00 | 1014.0 | ||
| 20260509122903 | 0 | 0.0 | 0.0 | 0.00 | 0.00 | 0.00 | 1014.2 | ||
| 20260509122358 | 0 | 0.0 | 0.0 | 0.00 | 0.00 | 0.00 | 1014.1 | ||
| 20260509121832 | 0 | 0.0 | 0.0 | 0.00 | 0.00 | 0.00 | 1014.2 | ||
| 20260509121331 | 0 | 0.0 | 0.0 | 0.00 | 0.00 | 0.00 | 1014.2 | ||
| 20260509120840 | 0 | 0.0 | 0.0 | 0.00 | 0.00 | 0.00 | 1014.3 | ||
| 20260509120321 | 0 | 0.0 | 0.0 | 0.00 | 0.00 | 0.00 | 1014.5 | ||
| 20260509115851 | 0 | 0.0 | 0.0 | 0.00 | 0.00 | 0.00 | 1014.6 | ||
| 20260509115318 | 0 | 0.0 | 0.0 | 0.00 | 0.00 | 0.00 | 1014.5 | ||
| 20260509114824 | 0 | 0.0 | 0.0 | 0.00 | 0.00 | 0.00 | 1014.5 | ||
| 20260509114325 | 0 | 0.0 | 0.0 | 0.00 | 0.00 | 0.00 | 1014.4 | ||
| 20260509113855 | 0 | 0.0 | 0.0 | 0.00 | 0.00 | 0.00 | 1014.4 | ||
| 20260509113322 | 0 | 0.0 | 0.0 | 0.00 | 0.00 | 0.00 | 1014.5 | ||
| 20260509112831 | 0 | 0.0 | 0.0 | 0.00 | 0.00 | 0.00 | 1014.6 | ||
| 20260509112333 | 0 | 0.0 | 0.0 | 0.00 | 0.00 | 0.00 | 1014.5 | ||
| 20260509111815 | 0 | 0.0 | 0.0 | 0.00 | 0.00 | 0.00 | 1014.6 | ||
| 20260509111411 | 0 | 0.0 | 0.0 | 0.00 | 0.00 | 0.00 | 1014.6 | ||
| 20260509110855 | 0 | 0.0 | 0.0 | 0.00 | 0.00 | 0.00 | 1014.5 | ||
| 20260509110329 | 0 | 0.0 | 0.0 | 0.00 | 0.00 | 0.00 | 1014.6 | ||
| 20260509105816 | 0 | 0.0 | 0.0 | 0.00 | 0.00 | 0.00 | 1014.7 | ||
| 20260509105317 | 0 | 0.0 | 0.0 | 0.00 | 0.00 | 0.00 | 1014.7 | ||
| 20260509104910 | 0 | 0.0 | 0.0 | 0.00 | 0.00 | 0.00 | 1014.7 | ||
| 20260509104358 | 0 | 0.0 | 0.0 | 0.00 | 0.00 | 0.00 | 1014.7 | ||
| 20260509103832 | 0 | 0.0 | 0.0 | 0.00 | 0.00 | 0.00 | 1014.9 | ||
| 20260509103315 | 0 | 0.0 | 0.0 | 0.00 | 0.00 | 0.00 | 1015.0 | ||
| 20260509102838 | 0 | 0.0 | 0.0 | 0.00 | 0.00 | 0.00 | 1015.0 | ||
| 20260509101902 | 0 | 0.0 | 0.0 | 0.00 | 0.00 | 0.00 | 1014.9 | ||
| 20260509101329 | 0 | 0.0 | 0.0 | 0.00 | 0.00 | 0.00 | 1014.9 | ||
| 20260509100838 | 0 | 0.0 | 0.0 | 0.00 | 0.00 | 0.00 | 1014.8 | ||
| 20260509100320 | 0 | 0.0 | 0.0 | 0.00 | 0.00 | 0.00 | 1014.8 | ||
| 20260509095908 | 0 | 0.0 | 0.0 | 0.00 | 0.00 | 0.00 | 1014.8 | ||
| 20260509095403 | 0 | 0.0 | 0.0 | 0.00 | 0.00 | 0.00 | 1014.8 | ||
| 20260509094830 | 0 | 0.0 | 0.0 | 0.00 | 0.00 | 0.00 | 1014.7 | ||
| 20260509094339 | 0 | 0.0 | 0.0 | 0.00 | 0.00 | 0.00 | 1014.5 | ||
| 20260509093822 | 0 | 0.0 | 0.0 | 0.00 | 0.00 | 0.00 | 1014.5 | ||
| 20260509092904 | 0 | 0.0 | 0.0 | 0.00 | 0.00 | 0.00 | 1014.5 | ||
| 20260509092338 | 0 | 0.0 | 0.0 | 0.00 | 0.00 | 0.00 | 1014.5 | ||
| 20260509091819 | 0 | 0.0 | 0.0 | 0.00 | 0.00 | 0.00 | 1014.6 | ||
| 20260509091322 | 0 | 0.0 | 0.0 | 0.00 | 0.00 | 0.00 | 1014.6 | ||
| 20260509090851 | 0 | 0.0 | 0.0 | 0.00 | 0.00 | 0.00 | 1014.6 | ||
| 20260509090405 | 0 | 0.0 | 0.0 | 0.00 | 0.00 | 0.00 | 1014.6 | ||
| 20260509085839 | 0 | 0.0 | 0.0 | 0.00 | 0.00 | 0.00 | 1014.6 | ||
| 20260509085321 | 0 | 0.0 | 0.0 | 0.00 | 0.00 | 0.00 | 1014.6 | ||
| 20260509084819 | 0 | 0.0 | 0.0 | 0.00 | 0.00 | 0.00 | 1014.6 | ||
| 20260509084349 | 0 | 0.0 | 0.0 | 0.00 | 0.00 | 0.00 | 1014.5 | ||
| 20260509083859 | 0 | 0.0 | 0.0 | 0.00 | 0.00 | 0.00 | 1014.5 | ||
| 20260509083333 | 0 | 0.0 | 0.0 | 0.00 | 0.00 | 0.00 | 1014.5 | ||
| 20260509082833 | 0 | 0.0 | 0.0 | 0.00 | 0.00 | 0.00 | 1014.7 | ||
| 20260509082315 | 0 | 0.0 | 0.0 | 0.00 | 0.00 | 0.00 | 1014.7 | ||
| 20260509081904 | 0 | 0.0 | 0.0 | 0.00 | 0.00 | 0.00 | 1014.9 | ||
| 20260509081359 | 0 | 0.0 | 0.0 | 0.00 | 0.00 | 0.00 | 1014.9 | ||
| 20260509080833 | 0 | 0.0 | 0.0 | 0.00 | 0.00 | 0.00 | 1014.9 | ||
| 20260509080315 | 0 | 0.0 | 0.0 | 0.00 | 0.00 | 0.00 | 1014.9 | ||
| 20260509075816 | 0 | 0.0 | 0.0 | 0.00 | 0.00 | 0.00 | 1014.9 | ||
| 20260509075412 | 0 | 0.0 | 0.0 | 0.00 | 0.00 | 0.00 | 1014.9 | ||
| 20260509074859 | 0 | 0.0 | 0.0 | 0.00 | 0.00 | 0.00 | 1014.8 | ||
| 20260509074333 | 0 | 0.0 | 0.0 | 0.00 | 0.00 | 0.00 | 1014.8 | ||
| 20260509073833 | 0 | 0.0 | 0.0 | 0.00 | 0.00 | 0.00 | 1014.9 | ||
| 20260509073314 | 0 | 0.0 | 0.0 | 0.00 | 0.00 | 0.00 | 1014.9 | ||
| 20260509072911 | 0 | 0.0 | 0.0 | 0.00 | 0.00 | 0.00 | 1015.0 | ||
| 20260509072359 | 0 | 0.0 | 0.0 | 0.00 | 0.00 | 0.00 | 1015.1 | ||
| 20260509071833 | 0 | 0.0 | 0.0 | 0.00 | 0.00 | 0.00 | 1015.1 | ||
| 20260509071315 | 0 | 0.0 | 0.0 | 0.00 | 0.00 | 0.00 | 1015.1 | ||
| 20260509070815 | 0 | 0.0 | 0.0 | 0.00 | 0.00 | 0.00 | 1015.1 | ||
| 20260509070412 | 0 | 0.0 | 0.0 | 0.00 | 0.00 | 0.00 | 1015.1 | ||
| 20260509065906 | 0 | 0.0 | 0.0 | 0.00 | 0.00 | 0.00 | 1015.1 | ||
| 20260509065314 | 0 | 0.0 | 0.0 | 0.00 | 0.00 | 0.00 | 1015.2 | ||
| 20260509064815 | 0 | 0.0 | 0.0 | 0.00 | 0.00 | 0.00 | 1015.1 | ||
| 20260509064325 | 0 | 0.0 | 0.0 | 0.00 | 0.00 | 0.00 | 1015.1 | ||
| 20260509062815 | 0 | 0.0 | 0.0 | 0.00 | 0.00 | 0.00 | 1015.1 | ||
| 20260509062324 | 0 | 0.0 | 0.0 | 0.00 | 0.00 | 0.00 | 1015.1 | ||
| 20260509061826 | 0 | 0.0 | 0.0 | 0.00 | 0.00 | 0.00 | 1015.2 | ||
| 20260509060908 | 0 | 0.0 | 0.0 | 0.00 | 0.00 | 0.00 | 1015.4 | ||
| 20260509060322 | 0 | 0.0 | 0.0 | 0.00 | 0.00 | 0.00 | 1015.3 | ||
| 20260509055824 | 0 | 0.0 | 0.0 | 0.00 | 0.00 | 0.00 | 1015.3 | ||
| 20260509055334 | 0 | 0.0 | 0.0 | 0.00 | 0.00 | 0.00 | 1015.2 | ||
| 20260509054856 | 0 | 0.0 | 0.0 | 0.00 | 0.00 | 0.00 | 1015.3 | ||
| 20260509054350 | 0 | 0.0 | 0.0 | 0.00 | 0.00 | 0.00 | 1015.2 | ||
| 20260509053825 | 0 | 0.0 | 0.0 | 0.00 | 0.00 | 0.00 | 1015.1 |